Time,TemperatureF,DewpointF,PressureIn,WindDirection,WindDirectionDegrees,WindSpeedMPH,WindSpeedGustMPH,Humidity,HourlyPrecipIn,Conditions,Clouds,dailyrainin,SoftwareType,DateUTC
2013-02-05 00:14:00,27.8,25.0,29.91,East,101,0.0,4.0,88,0.00,,,0.00,weatherlink.com 1.10,2013-02-05 05:14:00,
2013-02-05 00:29:00,27.7,25.0,29.92,ESE,103,1.0,3.0,88,0.00,,,0.00,weatherlink.com 1.10,2013-02-05 05:29:00,
2013-02-05 00:43:00,27.6,25.0,29.92,East,101,1.0,2.0,89,0.00,,,0.00,weatherlink.com 1.10,2013-02-05 05:43:00,
2013-02-05 00:59:00,27.3,24.0,29.93,SE,124,1.0,3.0,88,0.00,,,0.00,weatherlink.com 1.10,2013-02-05 05:59:00,
2013-02-05 01:14:00,27.2,24.0,29.93,East,96,2.0,3.0,89,0.00,,,0.00,weatherlink.com 1.10,2013-02-05 06:14:00,
2013-02-05 01:29:00,27.0,24.0,29.93,ESE,108,2.0,4.0,89,0.00,,,0.00,weatherlink.com 1.10,2013-02-05 06:29:00,
2013-02-05 01:44:00,26.8,24.0,29.93,ESE,114,2.0,5.0,89,0.00,,,0.00,weatherlink.com 1.10,2013-02-05 06:44:00,
2013-02-05 01:59:00,26.7,24.0,29.93,ESE,110,3.0,3.0,89,0.00,,,0.00,weatherlink.com 1.10,2013-02-05 06:59:00,
2013-02-05 02:15:00,26.3,24.0,29.93,East,99,0.0,4.0,89,0.00,,,0.00,weatherlink.com 1.10,2013-02-05 07:15:00,
2013-02-05 02:29:00,26.1,23.0,29.93,ESE,113,2.0,3.0,89,0.00,,,0.00,weatherlink.com 1.10,2013-02-05 07:29:00,
2013-02-05 02:45:00,26.0,23.0,29.93,East,98,0.0,3.0,89,0.00,,,0.00,weatherlink.com 1.10,2013-02-05 07:45:00,
2013-02-05 02:59:00,25.9,23.0,29.93,East,97,1.0,3.0,88,0.00,,,0.00,weatherlink.com 1.10,2013-02-05 07:59:00,
2013-02-05 03:14:00,25.6,22.0,29.93,ESE,106,2.0,3.0,87,0.00,,,0.00,weatherlink.com 1.10,2013-02-05 08:14:00,
2013-02-05 03:29:00,25.3,22.0,29.93,East,101,0.0,2.0,87,0.00,,,0.00,weatherlink.com 1.10,2013-02-05 08:29:00,
2013-02-05 03:44:00,24.4,21.0,29.93,East,101,0.0,1.0,87,0.00,,,0.00,weatherlink.com 1.10,2013-02-05 08:44:00,
2013-02-05 03:59:00,23.8,21.0,29.93,East,98,0.0,1.0,88,0.00,,,0.00,weatherlink.com 1.10,2013-02-05 08:59:00,
2013-02-05 04:14:00,23.2,21.0,29.92,East,97,0.0,0.0,89,0.00,,,0.00,weatherlink.com 1.10,2013-02-05 09:14:00,
2013-02-05 04:29:00,22.4,20.0,29.91,East,84,0.0,1.0,90,0.00,,,0.00,weatherlink.com 1.10,2013-02-05 09:29:00,
2013-02-05 04:45:00,21.7,20.0,29.91,East,84,0.0,0.0,91,0.00,,,0.00,weatherlink.com 1.10,2013-02-05 09:45:00,
2013-02-05 05:01:00,22.0,20.0,29.93,East,84,0.0,0.0,93,0.00,,,0.00,weatherlink.com 1.10,2013-02-05 10:01:00,
2013-02-05 05:15:00,22.6,21.0,29.93,East,85,0.0,0.0,92,0.00,,,0.00,weatherlink.com 1.10,2013-02-05 10:15:00,
2013-02-05 05:30:00,22.5,21.0,29.93,East,84,0.0,0.0,92,0.00,,,0.00,weatherlink.com 1.10,2013-02-05 10:30:00,
2013-02-05 05:45:00,22.3,20.0,29.92,East,85,0.0,0.0,92,0.00,,,0.00,weatherlink.com 1.10,2013-02-05 10:45:00,
2013-02-05 06:00:00,22.0,20.0,29.93,East,85,0.0,0.0,92,0.00,,,0.00,weatherlink.com 1.10,2013-02-05 11:00:00,
2013-02-05 06:15:00,21.7,20.0,29.92,East,84,0.0,0.0,92,0.00,,,0.00,weatherlink.com 1.10,2013-02-05 11:15:00,
2013-02-05 06:30:00,21.6,20.0,29.93,East,85,0.0,0.0,93,0.00,,,0.00,weatherlink.com 1.10,2013-02-05 11:30:00,
2013-02-05 06:45:00,21.2,20.0,29.93,East,85,0.0,0.0,93,0.00,,,0.00,weatherlink.com 1.10,2013-02-05 11:45:00,
2013-02-05 07:00:00,20.9,20.0,29.93,East,84,0.0,0.0,94,0.00,,,0.00,weatherlink.com 1.10,2013-02-05 12:00:00,
2013-02-05 07:15:00,20.6,19.0,29.93,East,85,0.0,0.0,94,0.00,,,0.00,weatherlink.com 1.10,2013-02-05 12:15:00,
2013-02-05 07:30:00,20.5,19.0,29.95,East,84,0.0,1.0,94,0.00,,,0.00,weatherlink.com 1.10,2013-02-05 12:30:00,
2013-02-05 07:45:00,20.4,19.0,29.94,East,85,0.0,0.0,94,0.00,,,0.00,weatherlink.com 1.10,2013-02-05 12:45:00,
2013-02-05 08:00:00,20.6,19.0,29.95,East,85,0.0,0.0,95,0.00,,,0.00,weatherlink.com 1.10,2013-02-05 13:00:00,
2013-02-05 08:15:00,21.2,20.0,29.95,East,84,0.0,0.0,95,0.00,,,0.00,weatherlink.com 1.10,2013-02-05 13:15:00,
2013-02-05 08:30:00,21.9,21.0,29.94,East,85,0.0,0.0,95,0.00,,,0.00,weatherlink.com 1.10,2013-02-05 13:30:00,
2013-02-05 08:45:00,22.6,21.0,29.95,East,84,0.0,0.0,95,0.00,,,0.00,weatherlink.com 1.10,2013-02-05 13:45:00,
2013-02-05 09:00:00,23.4,22.0,29.94,ENE,74,0.0,1.0,94,0.00,,,0.00,weatherlink.com 1.10,2013-02-05 14:00:00,
2013-02-05 09:15:00,24.0,23.0,29.95,ENE,74,0.0,1.0,94,0.00,,,0.00,weatherlink.com 1.10,2013-02-05 14:15:00,
2013-02-05 09:30:00,24.7,23.0,29.95,ENE,74,0.0,1.0,92,0.00,,,0.00,weatherlink.com 1.10,2013-02-05 14:30:00,
2013-02-05 09:45:00,25.3,23.0,29.96,ENE,72,0.0,1.0,90,0.00,,,0.00,weatherlink.com 1.10,2013-02-05 14:45:00,
2013-02-05 10:00:00,25.8,23.0,29.97,ENE,68,1.0,1.0,88,0.00,,,0.00,weatherlink.com 1.10,2013-02-05 15:00:00,
2013-02-05 10:15:00,26.2,23.0,29.95,ENE,71,0.0,1.0,87,0.00,,,0.00,weatherlink.com 1.10,2013-02-05 15:15:00,
2013-02-05 10:30:00,26.4,23.0,29.96,ENE,75,0.0,2.0,85,0.00,,,0.00,weatherlink.com 1.10,2013-02-05 15:30:00,
2013-02-05 10:45:00,26.9,23.0,29.96,ENE,68,0.0,2.0,85,0.00,,,0.00,weatherlink.com 1.10,2013-02-05 15:45:00,
2013-02-05 11:00:00,27.5,23.0,29.94,ENE,60,2.0,4.0,84,0.00,,,0.00,weatherlink.com 1.10,2013-02-05 16:00:00,
2013-02-05 11:15:00,28.7,24.0,29.94,NE,43,2.0,4.0,83,0.00,,,0.00,weatherlink.com 1.10,2013-02-05 16:15:00,
2013-02-05 11:30:00,29.1,24.0,29.93,NE,51,2.0,6.0,81,0.00,,,0.00,weatherlink.com 1.10,2013-02-05 16:30:00,
2013-02-05 11:45:00,29.5,24.0,29.92,NE,41,2.0,4.0,81,0.00,,,0.00,weatherlink.com 1.10,2013-02-05 16:45:00,
2013-02-05 12:00:00,30.1,25.0,29.92,NE,47,4.0,5.0,80,0.00,,,0.00,weatherlink.com 1.10,2013-02-05 17:00:00,
2013-02-05 12:15:00,30.5,25.0,29.91,North,6,3.0,7.0,81,0.00,,,0.00,weatherlink.com 1.10,2013-02-05 17:15:00,
2013-02-05 12:31:00,30.7,25.0,29.90,ENE,58,1.0,6.0,79,0.00,,,0.00,weatherlink.com 1.10,2013-02-05 17:31:00,
2013-02-05 12:45:00,31.0,26.0,29.89,ENE,58,1.0,6.0,80,0.00,,,0.00,weatherlink.com 1.10,2013-02-05 17:45:00,
2013-02-05 13:00:00,31.2,25.0,29.89,NE,54,2.0,4.0,79,0.00,,,0.00,weatherlink.com 1.10,2013-02-05 18:00:00,
2013-02-05 13:16:00,31.2,25.0,29.88,NE,41,3.0,5.0,77,0.00,,,0.00,weatherlink.com 1.10,2013-02-05 18:16:00,
2013-02-05 13:30:00,31.3,26.0,29.88,NE,46,3.0,8.0,79,0.00,,,0.00,weatherlink.com 1.10,2013-02-05 18:30:00,
2013-02-05 13:45:00,31.7,26.0,29.87,NE,44,3.0,7.0,79,0.00,,,0.00,weatherlink.com 1.10,2013-02-05 18:45:00,
2013-02-05 14:00:00,31.7,26.0,29.86,ENE,61,0.0,7.0,80,0.00,,,0.00,weatherlink.com 1.10,2013-02-05 19:00:00,
2013-02-05 14:16:00,32.4,27.0,29.85,North,349,6.0,9.0,79,0.00,,,0.00,weatherlink.com 1.10,2013-02-05 19:16:00,
2013-02-05 14:31:00,33.1,27.0,29.85,NNE,25,3.0,8.0,79,0.00,,,0.00,weatherlink.com 1.10,2013-02-05 19:31:00,
2013-02-05 14:46:00,33.5,28.0,29.84,NE,49,2.0,8.0,79,0.00,,,0.00,weatherlink.com 1.10,2013-02-05 19:46:00,
2013-02-05 15:02:00,34.3,28.0,29.84,NE,48,4.0,8.0,79,0.00,,,0.00,weatherlink.com 1.10,2013-02-05 20:02:00,
2013-02-05 15:16:00,34.4,28.0,29.84,ENE,58,2.0,7.0,78,0.00,,,0.00,weatherlink.com 1.10,2013-02-05 20:16:00,
2013-02-05 15:31:00,34.4,28.0,29.84,NE,53,3.0,8.0,78,0.00,,,0.00,weatherlink.com 1.10,2013-02-05 20:31:00,
2013-02-05 15:46:00,34.5,29.0,29.85,ENE,60,1.0,7.0,80,0.00,,,0.00,weatherlink.com 1.10,2013-02-05 20:46:00,
2013-02-05 16:01:00,34.8,29.0,29.85,NE,47,2.0,5.0,79,0.00,,,0.00,weatherlink.com 1.10,2013-02-05 21:01:00,
2013-02-05 16:16:00,34.9,29.0,29.86,East,96,1.0,8.0,79,0.00,,,0.00,weatherlink.com 1.10,2013-02-05 21:16:00,
2013-02-05 16:31:00,34.7,29.0,29.85,ENE,64,1.0,7.0,80,0.00,,,0.00,weatherlink.com 1.10,2013-02-05 21:31:00,
2013-02-05 16:46:00,34.6,29.0,29.86,ENE,60,1.0,8.0,81,0.00,,,0.00,weatherlink.com 1.10,2013-02-05 21:46:00,
2013-02-05 17:01:00,34.5,30.0,29.87,East,88,1.0,4.0,82,0.00,,,0.00,weatherlink.com 1.10,2013-02-05 22:01:00,
2013-02-05 17:16:00,34.5,30.0,29.88,ESE,107,2.0,6.0,83,0.00,,,0.00,weatherlink.com 1.10,2013-02-05 22:16:00,
2013-02-05 17:31:00,34.5,30.0,29.88,ESE,102,2.0,5.0,83,0.00,,,0.00,weatherlink.com 1.10,2013-02-05 22:31:00,
2013-02-05 17:47:00,34.4,30.0,29.89,East,86,0.0,5.0,84,0.00,,,0.00,weatherlink.com 1.10,2013-02-05 22:47:00,
2013-02-05 18:01:00,34.3,30.0,29.90,East,81,0.0,4.0,85,0.00,,,0.00,weatherlink.com 1.10,2013-02-05 23:01:00,
2013-02-05 18:16:00,34.1,30.0,29.90,East,97,1.0,3.0,86,0.00,,,0.00,weatherlink.com 1.10,2013-02-05 23:16:00,
2013-02-05 18:31:00,34.1,30.0,29.90,East,90,0.0,1.0,86,0.00,,,0.00,weatherlink.com 1.10,2013-02-05 23:31:00,
2013-02-05 18:46:00,34.2,31.0,29.91,ENE,70,0.0,5.0,87,0.00,,,0.00,weatherlink.com 1.10,2013-02-05 23:46:00,
2013-02-05 19:01:00,34.3,31.0,29.91,ENE,77,0.0,8.0,87,0.00,,,0.00,weatherlink.com 1.10,2013-02-06 00:01:00,
2013-02-05 19:16:00,34.4,31.0,29.92,East,92,1.0,4.0,88,0.00,,,0.00,weatherlink.com 1.10,2013-02-06 00:16:00,
2013-02-05 19:31:00,34.5,31.0,29.93,East,94,3.0,6.0,88,0.00,,,0.00,weatherlink.com 1.10,2013-02-06 00:31:00,
2013-02-05 19:46:00,34.6,32.0,29.94,ENE,76,1.0,6.0,89,0.00,,,0.00,weatherlink.com 1.10,2013-02-06 00:46:00,
2013-02-05 20:01:00,34.7,32.0,29.95,East,82,0.0,5.0,90,0.00,,,0.00,weatherlink.com 1.10,2013-02-06 01:01:00,
2013-02-05 20:16:00,34.7,32.0,29.95,East,99,2.0,5.0,90,0.00,,,0.00,weatherlink.com 1.10,2013-02-06 01:16:00,
2013-02-05 20:31:00,34.7,32.0,29.96,SE,131,2.0,6.0,90,0.00,,,0.00,weatherlink.com 1.10,2013-02-06 01:31:00,
2013-02-05 20:46:00,34.5,32.0,29.97,ESE,118,6.0,8.0,90,0.00,,,0.00,weatherlink.com 1.10,2013-02-06 01:46:00,
2013-02-05 21:01:00,34.5,32.0,29.97,East,96,1.0,5.0,90,0.00,,,0.00,weatherlink.com 1.10,2013-02-06 02:01:00,
2013-02-05 21:16:00,34.3,32.0,29.98,ENE,78,1.0,4.0,91,0.00,,,0.00,weatherlink.com 1.10,2013-02-06 02:16:00,
2013-02-05 21:31:00,34.1,32.0,29.98,East,85,1.0,5.0,90,0.00,,,0.00,weatherlink.com 1.10,2013-02-06 02:31:00,
2013-02-05 21:46:00,34.0,31.0,30.00,ESE,105,4.0,7.0,90,0.00,,,0.00,weatherlink.com 1.10,2013-02-06 02:46:00,
2013-02-05 22:01:00,33.9,31.0,30.00,East,101,2.0,10.0,90,0.00,,,0.00,weatherlink.com 1.10,2013-02-06 03:01:00,
2013-02-05 22:16:00,33.7,31.0,30.01,ESE,105,2.0,8.0,89,0.00,,,0.00,weatherlink.com 1.10,2013-02-06 03:16:00,
2013-02-05 22:31:00,33.5,31.0,30.02,ESE,111,5.0,9.0,89,0.00,,,0.00,weatherlink.com 1.10,2013-02-06 03:31:00,
2013-02-05 22:46:00,33.1,31.0,30.03,East,94,2.0,10.0,90,0.00,,,0.00,weatherlink.com 1.10,2013-02-06 03:46:00,
2013-02-05 23:01:00,32.8,30.0,30.03,ESE,117,7.0,9.0,90,0.00,,,0.00,weatherlink.com 1.10,2013-02-06 04:01:00,
2013-02-05 23:17:00,32.4,30.0,30.04,ESE,117,4.0,8.0,90,0.00,,,0.00,weatherlink.com 1.10,2013-02-06 04:17:00,
2013-02-05 23:32:00,32.0,30.0,30.04,East,101,1.0,8.0,91,0.00,,,0.00,weatherlink.com 1.10,2013-02-06 04:32:00,
2013-02-05 23:47:00,31.8,30.0,30.05,East,101,2.0,7.0,91,0.00,,,0.00,weatherlink.com 1.10,2013-02-06 04:47:00,